Location: Fours
(44.3167°N, 6.7000°E)
Time: 10:52:42
(UTC+00:00)

CSL-04 Debris - Pass Details

Date: 16 October 2021
Orbit: 827 x 847 km, 98.9° (Epoch: 03 December)

Event Time Altitude Azimuth Distance (km) Brightness Sun altitude
Exits shadow 19:08:40 30° 181° (S) 1,459 5.3 -26.0°
Maximum altitude 19:11:24 69° 257° (WSW) 885 4.3 -26.4°
Drops below altitude 10° 19:16:49 10° 341° (NNW) 2,446 7.0 -27.4°
Sets 19:19:12 0° 344° (NNW) 3,387 7.7 -27.8°
